2022-098D (53447 NORAD) Tracking and Keplerian Element Data

This shows tracking and keplerian element data for the satellite.

Feedback or suggestion? Click here.




ElementValue
Catalog53447
Name2022-098D
Epoch Orbit722
Epoch Day270.20185407
Epoch Year2022
RAAN5.6351
Inclination97.527
Eccentricity0.0013037
Argument of Perigee96.0322
Mean Anonmoly351.1588
Mean Motion15.09242496
Decay Rate4.406E-05
L11 53447U 22098D 22270.20185407 .00004406 00000+0 28030-3 0 9993
L22 53447 97.5270 5.6351 0013037 96.0322 351.1588 15.09242496 7225

Live tracking and technical data element details for 2022-098D (NORAD 53447). 2022-098D can be tracked NOW for your location showing map with azimuth and elevation plus other details from your city location.

Track the satellite on the map from your city or location and see movement details for azimuth, elevation, latitude, longitude, range, height, and movement on the map or in text.







IsCatalogInMostPopularTable: catalog: 53447, numindb: 4
Update: records affected: 1



GetName: 53447 2022-098D

Hit Count: updated at: Fri, 30 Sep 2022 04:23:52 GMT